Location: Falniów
(50.3639°N, 19.9642°E)
Time: 16:16:01
(UTC+00:00)

Cosmos 1633 Rocket - Pass Details

Date: 18 January 2026
Orbit: 600 x 616 km, 82.5° (Epoch: 10 February)

Event Time Altitude Azimuth Distance (km) Brightness Sun altitude
Rises 04:44:34 0° 181° (S) 2,855 6.6 -16.6°
Reaches altitude 10° 04:46:47 10° 179° (S) 1,954 5.8 -16.3°
Maximum altitude 04:51:04 69° 97° (E) 653 3.3 -15.6°
Drops below altitude 10° 04:55:23 10° 15° (NNE) 1,960 5.6 -14.9°
Sets 04:57:36 0° 13° (NNE) 2,867 6.5 -14.6°
